バス彗星

87P/Bus (2013)

English version
Home page
Updated on September 27, 2014

---------------------------------------------------------------------

・ プロフィール

・ 写真集

・ 軌道要素

Epoch 2013 Dec. 14.0 TT = JDT 2456640.5
T 2013 Dec. 19.56228 TT                                 MPC
q   2.1017562            (2000.0)            P               Q
n   0.15455195     Peri.   24.70843     -0.89409922     +0.44786641
a   3.4389014      Node   181.90043     -0.41808774     -0.83584582
e   0.3888292      Incl.    2.60073     -0.16059024     -0.31745464
P   6.38
From 244 observations 1993 Jan. 1-2014 Feb. 7, mean residual 0".8.
     Nongravitational parameters A1 = +2.15, A2 = -0.2256.

・ 光度変化

        m1 = 13.5 + 5 logΔ + 10.0 log r

---------------------------------------------------------------------

軌道要素はM.P.E.C. 2014-C43に掲載されたものです。
光度グラフはComet for Windowsで作成したものです。

---------------------------------------------------------------------

Copyright(C) Seiichi Yoshida (comet@aerith.net). All rights reserved.